Powrót do katalogu

THORAD DELTA 1 DEB

AktywnySSO
NORAD 8173·DEBRIS·🇺🇸 United States

Wystrzelony Nov 15, 1974 z Vandenberg Space Force Base

Loading…

Następne Przeloty (najbliższe 24 godziny)

TLE

ŚwieżeSource: Space-Track

Epoka: Sep 13, 2026, 21:21 UTC

1 08173U 74089AP  26256.88979081 -.00000005  00000-0  26488-3 0  9995
2 08173 102.0052 240.1041 0108807 318.9321  69.5265 12.51903451366092

Śledź THORAD DELTA 1 DEB w czasie rzeczywistym z AllMySat

Download on the App Store